Houston Hull, TX

6:36 AM CST on November 20, 2019 (GMT -0600)
Sugar Land Municipal-Hull

Weather History for KSGR - September, 2019

Change the Weather History Date:

Sunday, September 8, 2019

  Actual Average Record
Temperature  
Mean Temperature 83 °F -  
Max Temperature 97 °F 90 °F 102 °F (1999)
Min Temperature 70 °F 71 °F 32 °F (1997)
Cooling Degree Days 18    
Growing Degree Days 33 (Base 50)    
Moisture  
Dew Point 73 °F    
Average Humidity 84    
Maximum Humidity 100    
Minimum Humidity 43    
Precipitation  
Precipitation 0.00 in - - ()
Sea Level Pressure  
Sea Level Pressure 29.98 in    
Wind  
Wind Speed 3 mph (South)    
Max Wind Speed 16 mph    
Max Gust Speed -    
Visibility 7 miles    
Events Fog    
Averages and records for this station are not official NWS values.
T = Trace of Precipitation, MM = Missing Value Source: NWS Daily Summary

Daily Weather History Graph

Daily Weather History Graph

Search for Another Location

Airport or City:

Astronomy

Sep. 08, 2019 Rise Set
Actual Time 7:03 AM CDT 7:36 PM CDT
Civil Twilight 6:39 AM CDT 8:00 PM CDT
Nautical Twilight 6:11 AM CDT 8:28 PM CDT
Astronomical Twilight 5:42 AM CDT 8:57 PM CDT
Moon 4:24 PM CDT (9/8) 2:05 AM CDT (9/8)
Length of Visible Light 13h 21m
Length of Day
12h 33m
Waxing Gibbous, 75% of the Moon is Illuminated
Sep 8
Waxing Gibbous
Sep 13
Full
Sep 21
Last Quarter
Sep 28
New
Oct 5
First Quarter

Hourly Weather History & Observations

Time (CDT) Temp. Heat Index Dew Point Humidity Pressure Visibility Wind Dir Wind Speed Gust Speed Precip Events Conditions
12:53 AM 79.0 °F - 75.0 °F 88% 30.00 in 10.0 mi South 4.6 mph - N/A   Clear
1:53 AM 75.9 °F - 73.9 °F 94% 29.99 in 10.0 mi SW 3.5 mph - N/A   Clear
2:53 AM 75.0 °F - 73.0 °F 94% 29.99 in 10.0 mi SW 3.5 mph - N/A   Clear
3:53 AM 73.9 °F - 73.9 °F 100% 29.98 in 10.0 mi WSW 3.5 mph - N/A   Clear
4:24 AM 73.0 °F - 73.0 °F 100% 29.97 in 1.8 mi Calm Calm - N/A   Clear
4:37 AM 73.0 °F - 72.0 °F 96% 29.97 in 3.0 mi Calm Calm - N/A   Clear
4:53 AM 72.0 °F - 72.0 °F 100% 29.97 in 6.0 mi Calm Calm - N/A   Clear
5:09 AM 72.0 °F - 72.0 °F 100% 29.97 in 1.5 mi SW 3.5 mph - N/A   Clear
5:26 AM 70.0 °F - 70.0 °F 100% 29.97 in 0.5 mi Calm Calm - N/A Fog Fog
5:53 AM 71.1 °F - 71.1 °F 100% 29.98 in 0.2 mi Calm Calm - N/A Fog Fog
6:13 AM 72.0 °F - 72.0 °F 100% 29.98 in 0.5 mi Calm Calm - N/A Fog Fog
6:15 AM 72.0 °F - 72.0 °F 100% 29.99 in 1.0 mi Calm Calm - N/A   Clear
6:18 AM 71.1 °F - 71.1 °F 100% 29.99 in 3.0 mi Calm Calm - N/A   Clear
6:30 AM 71.1 °F - 70.0 °F 96% 29.99 in 1.5 mi Calm Calm - N/A   Clear
6:35 AM 71.1 °F - 71.1 °F 100% 29.99 in 0.5 mi Calm Calm - N/A Fog Fog
6:41 AM 71.1 °F - 71.1 °F 100% 29.99 in 1.0 mi Calm Calm - N/A   Clear
6:45 AM 71.1 °F - 71.1 °F 100% 29.99 in 3.0 mi Calm Calm - N/A   Clear
6:53 AM 71.1 °F - 71.1 °F 100% 30.00 in 10.0 mi SSE 3.5 mph - N/A   Clear
7:53 AM 73.0 °F - 73.0 °F 100% 30.01 in 9.0 mi Calm Calm - N/A   Clear
8:53 AM 79.0 °F - 77.0 °F 94% 30.01 in 10.0 mi Calm Calm - N/A   Clear
9:53 AM 82.0 °F 91.0 °F 78.1 °F 88% 30.03 in 10.0 mi Calm Calm - N/A   Clear
10:53 AM 88.0 °F 101.3 °F 78.1 °F 72% 30.03 in 10.0 mi SSW 5.8 mph - N/A   Partly Cloudy
11:53 AM 91.0 °F 104.2 °F 77.0 °F 63% 30.01 in 10.0 mi Variable 3.5 mph - N/A   Clear
12:53 PM 93.0 °F 100.7 °F 72.0 °F 50% 30.00 in 10.0 mi South 6.9 mph - N/A   Clear
1:53 PM 95.0 °F 103.2 °F 72.0 °F 47% 29.98 in 10.0 mi Variable 4.6 mph - N/A   Clear
2:53 PM 96.1 °F 102.9 °F 70.0 °F 43% 29.96 in 10.0 mi Variable 5.8 mph - N/A   Clear
3:53 PM 96.1 °F 102.9 °F 70.0 °F 43% 29.94 in 10.0 mi Variable 3.5 mph - N/A   Clear
4:53 PM 95.0 °F 104.5 °F 73.0 °F 49% 29.93 in 10.0 mi SE 10.4 mph - N/A   Clear
5:53 PM 93.0 °F 101.9 °F 73.0 °F 52% 29.92 in 10.0 mi South 12.7 mph - N/A   Clear
6:53 PM 89.1 °F 97.0 °F 73.0 °F 59% 29.94 in 10.0 mi South 16.1 mph - N/A   Clear
7:53 PM 84.0 °F 90.2 °F 73.0 °F 69% 29.94 in 10.0 mi South 12.7 mph - N/A   Clear
8:53 PM 81.0 °F 85.8 °F 73.0 °F 77% 29.96 in 10.0 mi South 9.2 mph - N/A   Clear
9:53 PM 79.0 °F - 73.9 °F 84% 29.98 in 10.0 mi SSE 6.9 mph - N/A   Clear
10:53 PM 79.0 °F - 73.9 °F 84% 29.99 in 10.0 mi SSE 5.8 mph - N/A   Clear
11:53 PM 77.0 °F - 73.9 °F 90% 29.98 in 10.0 mi SSE 5.8 mph - N/A   Clear